ASTRA 5B (EGNOS/PRN 123)

Last updated on Mon Oct 20 2025 00:03:27 GMT+0000 (Coordinated Universal Time)

1 39617U 14011B 25292.27191058 .00000135 00000+0 00000+0 0 9993 2 39617 0.0526 24.5407 0003973 207.9373 276.9324 1.00273687 42256
UTC large
Height (km)
Speed (km/s)
/
Latitude / Longitude
Inclination (degrees)
Orbital Period (minutes)
Azimuth
Elevation
Range (km)
Doppler Factor

Next 0 passes for location: London (51.5072 / 0.1276)

Sorry there are no passes over London.